Walnut Ridge, AR

5:27 AM CST on December 05, 2016 (GMT -0600)
Walnut Ridge Regional

Weather History for KARG - April, 2012

Change the Weather History Date:

Tuesday, April 10, 2012

  Actual Average Record
Temperature  
Mean Temperature 62 °F -  
Max Temperature 71 °F 66 °F 84 °F (2011)
Min Temperature 53 °F 47 °F 35 °F (1997)
Degree Days  
Heating Degree Days 3    
Growing Degree Days 12 (Base 50)    
Moisture  
Dew Point 40 °F    
Average Humidity 48    
Maximum Humidity 77    
Minimum Humidity 29    
Precipitation  
Precipitation 0.00 in - - ()
Sea Level Pressure  
Sea Level Pressure 30.10 in    
Wind  
Wind Speed 7 mph (NNW)    
Max Wind Speed 20 mph    
Max Gust Speed 28 mph    
Visibility 9 miles    
Events      
Averages and records for this station are not official NWS values.
T = Trace of Precipitation, MM = Missing Value Source: NWS Daily Summary

Daily Weather History Graph

Daily Weather History Graph

Search for Another Location

Airport or City:

Trip Planner

Search our weather history database for the weather conditions in past years. The results will help you decide how hot, cold, wet, or windy it might be!

Date:

Astronomy

Apr. 10, 2012 Rise Set
Actual Time 6:36 AM CDT 7:33 PM CDT
Civil Twilight 6:10 AM CDT 7:59 PM CDT
Nautical Twilight 5:39 AM CDT 8:31 PM CDT
Astronomical Twilight 5:07 AM CDT 9:03 PM CDT
Moon No Moon Rise 9:29 AM CDT (4/10)
Length of Visible Light 13h 49m
Length of Day
12h 57m
Waning Gibbous, 79% of the Moon is Illuminated
Apr 10
Waning Gibbous
Apr 13
Last Quarter
Apr 21
New
Apr 29
First Quarter
May 5
Full

Hourly Weather History & Observations

Time (CDT) Temp. Dew Point Humidity Pressure Visibility Wind Dir Wind Speed Gust Speed Precip Events Conditions
12:15 AM 62.6 °F 44.6 °F 52% 30.06 in 10.0 mi WSW 6.9 mph - N/A   Clear
12:35 AM 62.6 °F 44.6 °F 52% 30.06 in 10.0 mi WSW 4.6 mph - N/A   Clear
12:55 AM 62.6 °F 44.6 °F 52% 30.06 in 10.0 mi West 4.6 mph - N/A   Clear
1:15 AM 62.6 °F 46.4 °F 55% 30.05 in 10.0 mi Calm Calm - N/A   Clear
1:35 AM 57.2 °F 46.4 °F 67% 30.06 in 10.0 mi NNW 4.6 mph - N/A   Clear
1:55 AM 57.2 °F 48.2 °F 72% 30.05 in 10.0 mi NNE 5.8 mph - N/A   Clear
2:15 AM 57.2 °F 46.4 °F 67% 30.05 in 10.0 mi North 5.8 mph - N/A   Clear
2:35 AM 57.2 °F 46.4 °F 67% 30.04 in 10.0 mi North 3.5 mph - N/A   Clear
2:55 AM 57.2 °F 46.4 °F 67% 30.04 in 10.0 mi Calm Calm - N/A   Clear
3:15 AM 57.2 °F 46.4 °F 67% 30.04 in 10.0 mi Calm Calm - N/A   Clear
3:35 AM 55.4 °F 46.4 °F 72% 30.04 in 10.0 mi Calm Calm - N/A   Clear
3:55 AM 55.4 °F 46.4 °F 72% 30.04 in 10.0 mi Calm Calm - N/A   Clear
4:15 AM 55.4 °F 46.4 °F 72% 30.05 in 10.0 mi North 5.8 mph - N/A   Clear
4:35 AM 55.4 °F 46.4 °F 72% 30.06 in 10.0 mi North 5.8 mph - N/A   Partly Cloudy
4:55 AM 55.4 °F 46.4 °F 72% 30.05 in 10.0 mi North 4.6 mph - N/A   Partly Cloudy
5:15 AM 55.4 °F 48.2 °F 77% 30.07 in 10.0 mi North 4.6 mph - N/A   Scattered Clouds
5:35 AM 57.2 °F 46.4 °F 67% 30.07 in 10.0 mi Calm Calm - N/A   Mostly Cloudy
5:55 AM 55.4 °F 48.2 °F 77% 30.07 in 10.0 mi North 5.8 mph - N/A   Mostly Cloudy
6:15 AM 55.4 °F 46.4 °F 72% 30.09 in 10.0 mi North 8.1 mph - N/A   Mostly Cloudy
6:35 AM 55.4 °F 46.4 °F 72% 30.09 in 10.0 mi North 6.9 mph - N/A   Partly Cloudy
6:55 AM 55.4 °F 44.6 °F 67% 30.10 in 10.0 mi North 8.1 mph - N/A   Clear
7:15 AM 57.2 °F 42.8 °F 59% 30.12 in 10.0 mi North 10.4 mph - N/A   Clear
7:35 AM 57.2 °F 39.2 °F 51% 30.12 in 10.0 mi NNE 10.4 mph - N/A   Clear
7:55 AM 57.2 °F 39.2 °F 51% 30.13 in 2.0 mi NNE 10.4 mph - N/A   Scattered Clouds
8:15 AM 59.0 °F 37.4 °F 45% 30.14 in 2.0 mi NNE 10.4 mph - N/A   Mostly Cloudy
8:35 AM 59.0 °F 35.6 °F 42% 30.13 in 7.0 mi NNE 12.7 mph - N/A   Scattered Clouds
8:55 AM 60.8 °F 35.6 °F 39% 30.14 in 3.0 mi NNE 19.6 mph - N/A   Clear
9:15 AM 60.8 °F 35.6 °F 39% 30.16 in 3.0 mi NNE 15.0 mph 19.6 mph N/A   Scattered Clouds
9:35 AM 62.6 °F 33.8 °F 34% 30.16 in 5.0 mi NE 19.6 mph 23.0 mph N/A   Partly Cloudy
9:55 AM 62.6 °F 32.0 °F 32% 30.17 in 4.0 mi North 13.8 mph - N/A   Mostly Cloudy
10:15 AM 60.8 °F 33.8 °F 36% 30.17 in 4.0 mi NNE 12.7 mph - N/A   Mostly Cloudy
10:35 AM 60.8 °F 35.6 °F 39% 30.18 in 2.5 mi North 12.7 mph - N/A   Mostly Cloudy
10:55 AM 60.8 °F 33.8 °F 36% 30.18 in 3.0 mi North 12.7 mph - N/A   Partly Cloudy
11:15 AM 62.6 °F 33.8 °F 34% 30.18 in 3.0 mi North 10.4 mph - N/A   Clear
11:35 AM 62.6 °F 33.8 °F 34% 30.18 in 5.0 mi NNE 13.8 mph - N/A   Clear
11:55 AM 62.6 °F 35.6 °F 37% 30.18 in 7.0 mi North 11.5 mph - N/A   Clear
12:15 PM 64.4 °F 35.6 °F 34% 30.17 in 10.0 mi NNE 6.9 mph - N/A   Clear
12:35 PM 64.4 °F 37.4 °F 37% 30.16 in 10.0 mi NNE 8.1 mph - N/A   Partly Cloudy
12:55 PM 64.4 °F 37.4 °F 37% 30.15 in 10.0 mi North 8.1 mph - N/A   Clear
1:35 PM 68.0 °F 37.4 °F 33% 30.14 in 10.0 mi North 8.1 mph - N/A   Clear
2:15 PM 69.8 °F 37.4 °F 31% 30.13 in 10.0 mi NNW 5.8 mph - N/A   Clear
2:35 PM 69.8 °F 39.2 °F 33% 30.12 in 10.0 mi North 6.9 mph - N/A   Clear
2:55 PM 69.8 °F 39.2 °F 33% 30.12 in 10.0 mi North 8.1 mph - N/A   Clear
3:15 PM 69.8 °F 39.2 °F 33% 30.11 in 10.0 mi West 3.5 mph - N/A   Clear
3:35 PM 69.8 °F 37.4 °F 31% 30.10 in 10.0 mi West 8.1 mph - N/A   Clear
3:55 PM 71.6 °F 39.2 °F 31% 30.09 in 10.0 mi WNW 6.9 mph - N/A   Clear
4:15 PM 71.6 °F 39.2 °F 31% 30.09 in 10.0 mi NW 5.8 mph - N/A   Clear
4:35 PM 71.6 °F 39.2 °F 31% 30.08 in 10.0 mi West 11.5 mph - N/A   Clear
4:55 PM 71.6 °F 39.2 °F 31% 30.08 in 10.0 mi West 9.2 mph - N/A   Clear
5:15 PM 71.6 °F 39.2 °F 31% 30.07 in 10.0 mi NW 9.2 mph - N/A   Clear
5:35 PM 71.6 °F 37.4 °F 29% 30.07 in 10.0 mi NW 12.7 mph 27.6 mph N/A   Clear
5:55 PM 71.6 °F 37.4 °F 29% 30.07 in 10.0 mi NNW 13.8 mph - N/A   Clear
6:15 PM 71.6 °F 37.4 °F 29% 30.07 in 10.0 mi WNW 13.8 mph - N/A   Clear
6:35 PM 69.8 °F 37.4 °F 31% 30.07 in 10.0 mi WNW 12.7 mph - N/A   Clear
6:55 PM 69.8 °F 37.4 °F 31% 30.08 in 10.0 mi WNW 11.5 mph - N/A   Clear
7:15 PM 66.2 °F 37.4 °F 35% 30.08 in 8.0 mi NW 11.5 mph - N/A   Clear
7:35 PM 64.4 °F 37.4 °F 37% 30.08 in 4.0 mi WNW 8.1 mph - N/A   Clear
7:55 PM 64.4 °F 39.2 °F 40% 30.08 in 10.0 mi NW 5.8 mph - N/A   Clear
8:15 PM 62.6 °F 39.2 °F 42% 30.09 in 9.0 mi NNW 8.1 mph - N/A   Clear
8:35 PM 60.8 °F 39.2 °F 45% 30.09 in 10.0 mi NNW 8.1 mph - N/A   Clear
8:55 PM 62.6 °F 37.4 °F 39% 30.10 in 10.0 mi North 8.1 mph - N/A   Clear
9:15 PM 60.8 °F 37.4 °F 42% 30.11 in 10.0 mi North 8.1 mph - N/A   Clear
9:35 PM 57.2 °F 39.2 °F 51% 30.10 in 10.0 mi North 8.1 mph - N/A   Clear
9:55 PM 57.2 °F 37.4 °F 48% 30.10 in 10.0 mi NNW 6.9 mph - N/A   Clear
10:15 PM 55.4 °F 39.2 °F 54% 30.10 in 10.0 mi NNW 8.1 mph - N/A   Clear
10:35 PM 55.4 °F 39.2 °F 54% 30.10 in 10.0 mi North 6.9 mph - N/A   Clear
10:55 PM 53.6 °F 39.2 °F 58% 30.10 in 10.0 mi NNW 4.6 mph - N/A   Clear
11:15 PM 53.6 °F 37.4 °F 54% 30.11 in 10.0 mi North 8.1 mph - N/A   Clear
11:35 PM 55.4 °F 37.4 °F 51% 30.12 in 10.0 mi North 8.1 mph - N/A   Clear
11:55 PM 53.6 °F 37.4 °F 54% 30.12 in 10.0 mi North 9.2 mph - N/A   Clear